Year,Month,Day,Hour,Minute,Value (Times are PST for barometer in hPa)
2010,04,02,00,00,1007.01
2010,04,02,00,01,1007.01
2010,04,02,00,02,1007.01
2010,04,02,00,03,1007.01
2010,04,02,00,04,1007.01
2010,04,02,00,05,1007.01
2010,04,02,00,06,1007.01
2010,04,02,00,07,1007.01
2010,04,02,00,08,1007.01
2010,04,02,00,09,1007.01
2010,04,02,00,10,1007.01
2010,04,02,00,11,1007.01
2010,04,02,00,12,1007.01
2010,04,02,00,13,1007.01
2010,04,02,00,14,1007.01
2010,04,02,00,15,1006.47
2010,04,02,00,16,1006.47
2010,04,02,00,17,1006.47
2010,04,02,00,18,1006.47
2010,04,02,00,19,1006.47
2010,04,02,00,20,1006.47
2010,04,02,00,21,1006.47
2010,04,02,00,22,1006.47
2010,04,02,00,23,1006.47
2010,04,02,00,24,1006.47
2010,04,02,00,25,1006.47
2010,04,02,00,26,1006.47
2010,04,02,00,27,1006.47
2010,04,02,00,28,1006.47
2010,04,02,00,29,1006.47
2010,04,02,00,30,1006.13
2010,04,02,00,31,1006.13
2010,04,02,00,32,1006.13
2010,04,02,00,33,1006.13
2010,04,02,00,34,1006.13
2010,04,02,00,35,1006.13
2010,04,02,00,36,1006.13
2010,04,02,00,37,1006.13
2010,04,02,00,38,1006.13
2010,04,02,00,39,1006.13
2010,04,02,00,40,1006.13
2010,04,02,00,41,1006.13
2010,04,02,00,42,1006.13
2010,04,02,00,43,1006.13
2010,04,02,00,44,1006.13
2010,04,02,00,45,1005.66
2010,04,02,00,46,1005.66
2010,04,02,00,47,1005.66
2010,04,02,00,48,1005.66
2010,04,02,00,49,1005.66
2010,04,02,00,50,1005.66
2010,04,02,00,51,1005.66
2010,04,02,00,52,1005.66
2010,04,02,00,53,1005.66
2010,04,02,00,54,1005.66
2010,04,02,00,55,1005.66
2010,04,02,00,56,1005.66
2010,04,02,00,57,1005.66
2010,04,02,00,58,1005.66
2010,04,02,00,59,1005.66
2010,04,02,01,00,1005.15
2010,04,02,01,01,1005.15
2010,04,02,01,02,1005.15
2010,04,02,01,03,1005.15
2010,04,02,01,04,1005.15
2010,04,02,01,05,1005.15
2010,04,02,01,06,1005.15
2010,04,02,01,07,1005.15
2010,04,02,01,08,1005.15
2010,04,02,01,09,1005.15
2010,04,02,01,10,1005.15
2010,04,02,01,11,1005.15
2010,04,02,01,12,1005.15
2010,04,02,01,13,1005.15
2010,04,02,01,14,1005.15
2010,04,02,01,15,1004.84
2010,04,02,01,16,1004.84
2010,04,02,01,17,1004.84
2010,04,02,01,18,1004.84
2010,04,02,01,19,1004.84
2010,04,02,01,20,1004.84
2010,04,02,01,21,1004.84
2010,04,02,01,22,1004.84
2010,04,02,01,23,1004.84
2010,04,02,01,24,1004.84
2010,04,02,01,25,1004.84
2010,04,02,01,26,1004.84
2010,04,02,01,27,1004.84
2010,04,02,01,28,1004.84
2010,04,02,01,29,1004.84
2010,04,02,01,30,1004.54
2010,04,02,01,31,1004.54
2010,04,02,01,32,1004.54
2010,04,02,01,33,1004.54
2010,04,02,01,34,1004.54
2010,04,02,01,35,1004.54
2010,04,02,01,36,1004.54
2010,04,02,01,37,1004.54
2010,04,02,01,38,1004.54
2010,04,02,01,39,1004.54
2010,04,02,01,40,1004.54
2010,04,02,01,41,1004.54
2010,04,02,01,42,1004.54
2010,04,02,01,43,1004.54
2010,04,02,01,44,1004.54
2010,04,02,01,45,1004.23
2010,04,02,01,46,1004.23
2010,04,02,01,47,1004.23
2010,04,02,01,48,1004.23
2010,04,02,01,49,1004.23
2010,04,02,01,50,1004.23
2010,04,02,01,51,1004.23
2010,04,02,01,52,1004.23
2010,04,02,01,53,1004.23
2010,04,02,01,54,1004.23
2010,04,02,01,55,1004.23
2010,04,02,01,56,1004.23
2010,04,02,01,57,1004.23
2010,04,02,01,58,1004.23
2010,04,02,01,59,1004.23
2010,04,02,02,00,1003.83
2010,04,02,02,01,1003.83
2010,04,02,02,02,1003.83
2010,04,02,02,03,1003.83
2010,04,02,02,04,1003.83
2010,04,02,02,05,1003.83
2010,04,02,02,06,1003.83
2010,04,02,02,07,1003.83
2010,04,02,02,08,1003.83
2010,04,02,02,09,1003.83
2010,04,02,02,10,1003.83
2010,04,02,02,11,1003.83
2010,04,02,02,12,1003.83
2010,04,02,02,13,1003.83
2010,04,02,02,14,1003.83
2010,04,02,02,15,1003.35
2010,04,02,02,16,1003.35
2010,04,02,02,17,1003.35
2010,04,02,02,18,1003.35
2010,04,02,02,19,1003.35
2010,04,02,02,20,1003.35
2010,04,02,02,21,1003.35
2010,04,02,02,22,1003.35
2010,04,02,02,23,1003.35
2010,04,02,02,24,1003.35
2010,04,02,02,25,1003.35
2010,04,02,02,26,1003.35
2010,04,02,02,27,1003.35
2010,04,02,02,28,1003.35
2010,04,02,02,29,1003.35
2010,04,02,02,30,1002.95
2010,04,02,02,31,1002.95
2010,04,02,02,32,1002.95
2010,04,02,02,33,1002.95
2010,04,02,02,34,1002.95
2010,04,02,02,35,1002.95
2010,04,02,02,36,1002.95
2010,04,02,02,37,1002.95
2010,04,02,02,38,1002.95
2010,04,02,02,39,1002.95
2010,04,02,02,40,1002.95
2010,04,02,02,41,1002.95
2010,04,02,02,42,1002.95
2010,04,02,02,43,1002.95
2010,04,02,02,44,1002.95
2010,04,02,02,45,1002.47
2010,04,02,02,46,1002.47
2010,04,02,02,47,1002.47
2010,04,02,02,48,1002.47
2010,04,02,02,49,1002.47
2010,04,02,02,50,1002.47
2010,04,02,02,51,1002.47
2010,04,02,02,52,1002.47
2010,04,02,02,53,1002.47
2010,04,02,02,54,1002.47
2010,04,02,02,55,1002.47
2010,04,02,02,56,1002.47
2010,04,02,02,57,1002.47
2010,04,02,02,58,1002.47
2010,04,02,02,59,1002.47
2010,04,02,03,00,1002.17
2010,04,02,03,01,1002.17
2010,04,02,03,02,1002.17
2010,04,02,03,03,1002.17
2010,04,02,03,04,1002.17
2010,04,02,03,05,1002.17
2010,04,02,03,06,1002.17
2010,04,02,03,07,1002.17
2010,04,02,03,08,1002.17
2010,04,02,03,09,1002.17
2010,04,02,03,10,1002.17
2010,04,02,03,11,1002.17
2010,04,02,03,12,1002.17
2010,04,02,03,13,1002.17
2010,04,02,03,14,1002.17
2010,04,02,03,15,1001.66
2010,04,02,03,16,1001.66
2010,04,02,03,17,1001.66
2010,04,02,03,18,1001.66
2010,04,02,03,19,1001.66
2010,04,02,03,20,1001.66
2010,04,02,03,21,1001.66
2010,04,02,03,22,1001.66
2010,04,02,03,23,1001.66
2010,04,02,03,24,1001.66
2010,04,02,03,25,1001.66
2010,04,02,03,26,1001.66
2010,04,02,03,27,1001.66
2010,04,02,03,28,1001.66
2010,04,02,03,29,1001.66
2010,04,02,03,30,1001.39
2010,04,02,03,31,1001.39
2010,04,02,03,32,1001.39
2010,04,02,03,33,1001.39
2010,04,02,03,34,1001.39
2010,04,02,03,35,1001.39
2010,04,02,03,36,1001.39
2010,04,02,03,37,1001.39
2010,04,02,03,38,1001.39
2010,04,02,03,39,1001.39
2010,04,02,03,40,1001.39
2010,04,02,03,41,1001.39
2010,04,02,03,42,1001.39
2010,04,02,03,43,1001.39
2010,04,02,03,44,1001.39
2010,04,02,03,45,1001.15
2010,04,02,03,46,1001.15
2010,04,02,03,47,1001.15
2010,04,02,03,48,1001.15
2010,04,02,03,49,1001.15
2010,04,02,03,50,1001.15
2010,04,02,03,51,1001.15
2010,04,02,03,52,1001.15
2010,04,02,03,53,1001.15
2010,04,02,03,54,1001.15
2010,04,02,03,55,1001.15
2010,04,02,03,56,1001.15
2010,04,02,03,57,1001.15
2010,04,02,03,58,1001.15
2010,04,02,03,59,1001.15
2010,04,02,04,00,1001.19
2010,04,02,04,01,1001.19
2010,04,02,04,02,1001.19
2010,04,02,04,03,1001.19
2010,04,02,04,04,1001.19
2010,04,02,04,05,1001.19
2010,04,02,04,06,1001.19
2010,04,02,04,07,1001.19
2010,04,02,04,08,1001.19
2010,04,02,04,09,1001.19
2010,04,02,04,10,1001.19
2010,04,02,04,11,1001.19
2010,04,02,04,12,1001.19
2010,04,02,04,13,1001.19
2010,04,02,04,14,1001.19
2010,04,02,04,15,1001.15
2010,04,02,04,16,1001.15
2010,04,02,04,17,1001.15
2010,04,02,04,18,1001.15
2010,04,02,04,19,1001.15
2010,04,02,04,20,1001.15
2010,04,02,04,21,1001.15
2010,04,02,04,22,1001.15
2010,04,02,04,23,1001.15
2010,04,02,04,24,1001.15
2010,04,02,04,25,1001.15
2010,04,02,04,26,1001.15
2010,04,02,04,27,1001.15
2010,04,02,04,28,1001.15
2010,04,02,04,29,1001.15
2010,04,02,04,30,1000.88
2010,04,02,04,31,1000.88
2010,04,02,04,32,1000.88
2010,04,02,04,33,1000.88
2010,04,02,04,34,1000.88
2010,04,02,04,35,1000.88
2010,04,02,04,36,1000.88
2010,04,02,04,37,1000.88
2010,04,02,04,38,1000.88
2010,04,02,04,39,1000.88
2010,04,02,04,40,1000.88
2010,04,02,04,41,1000.88
2010,04,02,04,42,1000.88
2010,04,02,04,43,1000.88
2010,04,02,04,44,1000.88
2010,04,02,04,45,1000.75
2010,04,02,04,46,1000.75
2010,04,02,04,47,1000.75
2010,04,02,04,48,1000.75
2010,04,02,04,49,1000.75
2010,04,02,04,50,1000.75
2010,04,02,04,51,1000.75
2010,04,02,04,52,1000.75
2010,04,02,04,53,1000.75
2010,04,02,04,54,1000.75
2010,04,02,04,55,1000.75
2010,04,02,04,56,1000.75
2010,04,02,04,57,1000.75
2010,04,02,04,58,1000.75
2010,04,02,04,59,1000.75
2010,04,02,05,00,1000.41
2010,04,02,05,01,1000.41
2010,04,02,05,02,1000.41
2010,04,02,05,03,1000.41
2010,04,02,05,04,1000.41
2010,04,02,05,05,1000.41
2010,04,02,05,06,1000.41
2010,04,02,05,07,1000.41
2010,04,02,05,08,1000.41
2010,04,02,05,09,1000.41
2010,04,02,05,10,1000.41
2010,04,02,05,11,1000.41
2010,04,02,05,12,1000.41
2010,04,02,05,13,1000.41
2010,04,02,05,14,1000.41
2010,04,02,05,15,999.76
2010,04,02,05,16,999.76
2010,04,02,05,17,999.76
2010,04,02,05,18,999.76
2010,04,02,05,19,999.76
2010,04,02,05,20,999.76
2010,04,02,05,21,999.76
2010,04,02,05,22,999.76
2010,04,02,05,23,999.76
2010,04,02,05,24,999.76
2010,04,02,05,25,999.76
2010,04,02,05,26,999.76
2010,04,02,05,27,999.76
2010,04,02,05,28,999.76
2010,04,02,05,29,999.76
2010,04,02,05,30,999.26
2010,04,02,05,31,999.26
2010,04,02,05,32,999.26
2010,04,02,05,33,999.26
2010,04,02,05,34,999.26
2010,04,02,05,35,999.26
2010,04,02,05,36,999.26
2010,04,02,05,37,999.26
2010,04,02,05,38,999.26
2010,04,02,05,39,999.26
2010,04,02,05,40,999.26
2010,04,02,05,41,999.26
2010,04,02,05,42,999.26
2010,04,02,05,43,999.26
2010,04,02,05,44,999.26
2010,04,02,05,45,998.14
2010,04,02,05,46,998.14
2010,04,02,05,47,998.14
2010,04,02,05,48,998.14
2010,04,02,05,49,998.14
2010,04,02,05,50,998.14
2010,04,02,05,51,998.14
2010,04,02,05,52,998.14
2010,04,02,05,53,998.14
2010,04,02,05,54,998.14
2010,04,02,05,55,998.14
2010,04,02,05,56,998.14
2010,04,02,05,57,998.14
2010,04,02,05,58,998.14
2010,04,02,05,59,998.14
2010,04,02,06,00,996.75
2010,04,02,06,01,996.75
2010,04,02,06,02,996.75
2010,04,02,06,03,996.75
2010,04,02,06,04,996.75
2010,04,02,06,05,996.75
2010,04,02,06,06,996.75
2010,04,02,06,07,996.75
2010,04,02,06,08,996.75
2010,04,02,06,09,996.75
2010,04,02,06,10,996.75
2010,04,02,06,11,996.75
2010,04,02,06,12,996.75
2010,04,02,06,13,996.75
2010,04,02,06,14,996.75
2010,04,02,06,15,996.17
2010,04,02,06,16,996.17
2010,04,02,06,17,996.17
2010,04,02,06,18,996.17
2010,04,02,06,19,996.17
2010,04,02,06,20,996.17
2010,04,02,06,21,996.17
2010,04,02,06,22,996.17
2010,04,02,06,23,996.17
2010,04,02,06,24,996.17
2010,04,02,06,25,996.17
2010,04,02,06,26,996.17
2010,04,02,06,27,996.17
2010,04,02,06,28,996.17
2010,04,02,06,29,996.17
2010,04,02,06,30,995.43
2010,04,02,06,31,995.43
2010,04,02,06,32,995.43
2010,04,02,06,33,995.43
2010,04,02,06,34,995.43
2010,04,02,06,35,995.43
2010,04,02,06,36,995.43
2010,04,02,06,37,995.43
2010,04,02,06,38,995.43
2010,04,02,06,39,995.43
2010,04,02,06,40,995.43
2010,04,02,06,41,995.43
2010,04,02,06,42,995.43
2010,04,02,06,43,995.43
2010,04,02,06,44,995.43
2010,04,02,06,45,995.46
2010,04,02,06,46,995.46
2010,04,02,06,47,995.46
2010,04,02,06,48,995.46
2010,04,02,06,49,995.46
2010,04,02,06,50,995.46
2010,04,02,06,51,995.46
2010,04,02,06,52,995.46
2010,04,02,06,53,995.46
2010,04,02,06,54,995.46
2010,04,02,06,55,995.46
2010,04,02,06,56,995.46
2010,04,02,06,57,995.46
2010,04,02,06,58,995.46
2010,04,02,06,59,995.46
2010,04,02,07,00,995.12
2010,04,02,07,01,995.12
2010,04,02,07,02,995.12
2010,04,02,07,03,995.12
2010,04,02,07,04,995.12
2010,04,02,07,05,995.12
2010,04,02,07,06,995.12
2010,04,02,07,07,995.12
2010,04,02,07,08,995.12
2010,04,02,07,09,995.12
2010,04,02,07,10,995.12
2010,04,02,07,11,995.12
2010,04,02,07,12,995.12
2010,04,02,07,13,995.12
2010,04,02,07,14,995.12
2010,04,02,07,15,994.41
2010,04,02,07,16,994.41
2010,04,02,07,17,994.41
2010,04,02,07,18,994.41
2010,04,02,07,19,994.41
2010,04,02,07,20,994.41
2010,04,02,07,21,994.41
2010,04,02,07,22,994.41
2010,04,02,07,23,994.41
2010,04,02,07,24,994.41
2010,04,02,07,25,994.41
2010,04,02,07,26,994.41
2010,04,02,07,27,994.41
2010,04,02,07,28,994.41
2010,04,02,07,29,994.41
2010,04,02,07,30,993.36
2010,04,02,07,31,993.36
2010,04,02,07,32,993.36
2010,04,02,07,33,993.36
2010,04,02,07,36,993.36
2010,04,02,07,37,993.36
2010,04,02,07,38,993.36
2010,04,02,07,39,993.36
2010,04,02,07,40,993.36
2010,04,02,07,41,993.36
2010,04,02,07,42,993.36
2010,04,02,07,43,993.36
2010,04,02,07,44,993.36
2010,04,02,07,45,993.06
2010,04,02,07,46,993.06
2010,04,02,07,47,993.06
2010,04,02,07,48,993.06
2010,04,02,07,49,993.06
2010,04,02,07,50,993.06
2010,04,02,07,51,993.06
2010,04,02,07,52,993.06
2010,04,02,07,53,993.06
2010,04,02,07,54,993.06
2010,04,02,07,55,993.06
2010,04,02,07,56,993.06
2010,04,02,07,57,993.06
2010,04,02,07,58,993.06
2010,04,02,07,59,993.06
2010,04,02,08,00,992.52
2010,04,02,08,01,992.52
2010,04,02,08,02,992.52
2010,04,02,08,03,992.52
2010,04,02,08,04,992.52
2010,04,02,08,05,992.52
2010,04,02,08,06,992.52
2010,04,02,08,07,992.52
2010,04,02,08,08,992.52
2010,04,02,08,09,992.52
2010,04,02,08,10,992.52
2010,04,02,08,11,992.52
2010,04,02,08,12,992.52
2010,04,02,08,13,992.52
2010,04,02,08,14,992.52
2010,04,02,08,15,991.87
2010,04,02,08,16,991.87
2010,04,02,08,17,991.87
2010,04,02,08,18,991.87
2010,04,02,08,19,991.87
2010,04,02,08,20,991.87
2010,04,02,08,21,991.87
2010,04,02,08,22,991.87
2010,04,02,08,23,991.87
2010,04,02,08,24,991.87
2010,04,02,08,25,991.87
2010,04,02,08,26,991.87
2010,04,02,08,27,991.87
2010,04,02,08,28,991.87
2010,04,02,08,29,991.87
2010,04,02,08,30,991.26
2010,04,02,08,31,991.26
2010,04,02,08,32,991.26
2010,04,02,08,33,991.26
2010,04,02,08,34,991.26
2010,04,02,08,35,991.26
2010,04,02,08,36,991.26
2010,04,02,08,37,991.26
2010,04,02,08,38,991.26
2010,04,02,08,39,991.26
2010,04,02,08,40,991.26
2010,04,02,08,41,991.26
2010,04,02,08,42,991.26
2010,04,02,08,43,991.26
2010,04,02,08,44,991.26
2010,04,02,08,45,990.49
2010,04,02,08,46,990.49
2010,04,02,08,47,990.49
2010,04,02,08,48,990.49
2010,04,02,08,49,990.49
2010,04,02,08,50,990.49
2010,04,02,08,51,990.49
2010,04,02,08,52,990.49
2010,04,02,08,53,990.49
2010,04,02,08,54,990.49
2010,04,02,08,55,990.49
2010,04,02,08,56,990.49
2010,04,02,08,57,990.49
2010,04,02,08,58,990.49
2010,04,02,08,59,990.49
2010,04,02,09,00,989.27
2010,04,02,09,01,989.27
2010,04,02,09,02,989.27
2010,04,02,09,03,989.27
2010,04,02,09,04,989.27
2010,04,02,09,05,989.27
2010,04,02,09,06,989.27
2010,04,02,09,07,989.27
2010,04,02,09,08,989.27
2010,04,02,09,09,989.27
2010,04,02,09,10,989.27
2010,04,02,09,11,989.27
2010,04,02,09,12,989.27
2010,04,02,09,13,989.27
2010,04,02,09,14,989.27
2010,04,02,09,15,988.79
2010,04,02,09,16,988.79
2010,04,02,09,17,988.79
2010,04,02,09,18,988.79
2010,04,02,09,19,988.79
2010,04,02,09,20,988.79
2010,04,02,09,21,988.79
2010,04,02,09,22,988.79
2010,04,02,09,23,988.79
2010,04,02,09,24,988.79
2010,04,02,09,25,988.79
2010,04,02,09,26,988.79
2010,04,02,09,27,988.79
2010,04,02,09,28,988.79
2010,04,02,09,29,988.79
2010,04,02,09,30,988.08
2010,04,02,09,31,988.08
2010,04,02,09,32,988.08
2010,04,02,09,33,988.08
2010,04,02,09,34,988.08
2010,04,02,09,35,988.08
2010,04,02,09,36,988.08
2010,04,02,09,37,988.08
2010,04,02,09,38,988.08
2010,04,02,09,39,988.08
2010,04,02,09,40,988.08
2010,04,02,09,41,988.08
2010,04,02,09,42,988.08
2010,04,02,09,43,988.08
2010,04,02,09,44,988.08
2010,04,02,09,45,987.57
2010,04,02,09,46,987.54
2010,04,02,09,47,987.54
2010,04,02,09,48,987.54
2010,04,02,09,49,987.54
2010,04,02,09,50,987.54
2010,04,02,09,51,987.54
2010,04,02,09,52,987.54
2010,04,02,09,53,987.54
2010,04,02,09,54,987.54
2010,04,02,09,55,987.54
2010,04,02,09,56,987.54
2010,04,02,09,57,987.54
2010,04,02,09,58,987.54
2010,04,02,09,59,987.54
2010,04,02,10,00,987.03
2010,04,02,10,01,987.00
2010,04,02,10,02,987.00
2010,04,02,10,03,987.00
2010,04,02,10,04,987.00
2010,04,02,10,05,987.00
2010,04,02,10,06,987.00
2010,04,02,10,07,987.00
2010,04,02,10,08,987.00
2010,04,02,10,09,987.00
2010,04,02,10,10,987.00
2010,04,02,10,11,987.00
2010,04,02,10,12,987.00
2010,04,02,10,13,987.00
2010,04,02,10,14,987.00
2010,04,02,10,15,986.35
2010,04,02,10,16,986.35
2010,04,02,10,17,986.35
2010,04,02,10,18,986.35
2010,04,02,10,19,986.35
2010,04,02,10,20,986.35
2010,04,02,10,21,986.35
2010,04,02,10,22,986.35
2010,04,02,10,23,986.35
2010,04,02,10,24,986.35
2010,04,02,10,25,986.35
2010,04,02,10,26,986.35
2010,04,02,10,27,986.35
2010,04,02,10,28,986.35
2010,04,02,10,29,986.35
2010,04,02,10,30,985.95
2010,04,02,10,31,985.95
2010,04,02,10,32,985.95
2010,04,02,10,33,985.95
2010,04,02,10,34,985.95
2010,04,02,10,35,985.95
2010,04,02,10,36,985.95
2010,04,02,10,37,985.95
2010,04,02,10,38,985.95
2010,04,02,10,39,985.95
2010,04,02,10,40,985.95
2010,04,02,10,41,985.95
2010,04,02,10,42,985.95
2010,04,02,10,43,985.95
2010,04,02,10,44,985.95
2010,04,02,10,45,985.95
2010,04,02,10,46,985.95
2010,04,02,10,47,985.95
2010,04,02,10,48,985.95
2010,04,02,10,49,985.95
2010,04,02,10,50,985.95
2010,04,02,10,51,985.95
2010,04,02,10,52,985.95
2010,04,02,10,53,985.95
2010,04,02,10,54,985.95
2010,04,02,10,55,985.95
2010,04,02,10,56,985.95
2010,04,02,10,57,985.95
2010,04,02,10,58,985.95
2010,04,02,10,59,985.95
2010,04,02,11,00,986.02
2010,04,02,11,01,986.02
2010,04,02,11,02,986.02
2010,04,02,11,03,986.02
2010,04,02,11,04,986.02
2010,04,02,11,05,986.02
2010,04,02,11,06,986.02
2010,04,02,11,07,986.02
2010,04,02,11,08,986.02
2010,04,02,11,09,986.02
2010,04,02,11,10,986.02
2010,04,02,11,11,986.02
2010,04,02,11,12,986.02
2010,04,02,11,13,986.02
2010,04,02,11,14,986.02
2010,04,02,11,15,986.05
2010,04,02,11,16,986.05
2010,04,02,11,17,986.05
2010,04,02,11,18,986.05
2010,04,02,11,19,986.05
2010,04,02,11,20,986.05
2010,04,02,11,21,986.05
2010,04,02,11,22,986.05
2010,04,02,11,23,986.05
2010,04,02,11,24,986.05
2010,04,02,11,25,986.05
2010,04,02,11,26,986.05
2010,04,02,11,27,986.05
2010,04,02,11,28,986.05
2010,04,02,11,29,986.05
2010,04,02,11,30,985.98
2010,04,02,11,31,985.98
2010,04,02,11,32,985.98
2010,04,02,11,33,985.98
2010,04,02,11,34,985.98
2010,04,02,11,35,985.98
2010,04,02,11,36,985.98
2010,04,02,11,37,985.98
2010,04,02,11,38,985.98
2010,04,02,11,39,985.98
2010,04,02,11,40,985.98
2010,04,02,11,41,985.98
2010,04,02,11,42,985.98
2010,04,02,11,43,985.98
2010,04,02,11,44,985.98
2010,04,02,11,47,986.12
2010,04,02,11,48,986.12
2010,04,02,11,49,986.12
2010,04,02,11,50,986.12
2010,04,02,11,51,986.12
2010,04,02,11,52,986.12
2010,04,02,11,53,986.12
2010,04,02,11,54,986.12
2010,04,02,11,55,986.12
2010,04,02,11,56,986.12
2010,04,02,11,57,986.12
2010,04,02,11,58,986.12
2010,04,02,11,59,986.12
2010,04,02,12,00,985.74
2010,04,02,12,01,985.74
2010,04,02,12,02,985.74
2010,04,02,12,03,985.74
2010,04,02,12,04,985.74
2010,04,02,12,05,985.74
2010,04,02,12,06,985.74
2010,04,02,12,07,985.74
2010,04,02,12,08,985.74
2010,04,02,12,09,985.74
2010,04,02,12,10,985.74
2010,04,02,12,11,985.74
2010,04,02,12,12,985.74
2010,04,02,12,13,985.74
2010,04,02,12,14,985.74
2010,04,02,12,15,985.81
2010,04,02,12,16,985.81
2010,04,02,12,17,985.81
2010,04,02,12,18,985.81
2010,04,02,12,19,985.81
2010,04,02,12,20,985.81
2010,04,02,12,21,985.81
2010,04,02,12,22,985.81
2010,04,02,12,23,985.81
2010,04,02,12,24,985.81
2010,04,02,12,25,985.81
2010,04,02,12,26,985.81
2010,04,02,12,27,985.81
2010,04,02,12,28,985.81
2010,04,02,12,29,985.81
2010,04,02,12,30,985.88
2010,04,02,12,31,985.88
2010,04,02,12,32,985.88
2010,04,02,12,33,985.88
2010,04,02,12,34,985.88
2010,04,02,12,35,985.88
2010,04,02,12,36,985.88
2010,04,02,12,37,985.88
2010,04,02,12,38,985.88
2010,04,02,12,39,985.88
2010,04,02,12,40,985.88
2010,04,02,12,41,985.88
2010,04,02,12,42,985.88
2010,04,02,12,43,985.88
2010,04,02,12,44,985.88
2010,04,02,12,45,985.95
2010,04,02,12,46,985.95
2010,04,02,12,47,985.95
2010,04,02,12,48,985.95
2010,04,02,12,49,985.95
2010,04,02,12,50,985.95
2010,04,02,12,51,985.95
2010,04,02,12,52,985.95
2010,04,02,12,53,985.95
2010,04,02,12,54,985.95
2010,04,02,12,55,985.95
2010,04,02,12,56,985.95
2010,04,02,12,57,985.95
2010,04,02,12,58,985.95
2010,04,02,12,59,985.95
2010,04,02,13,00,985.95
2010,04,02,13,01,985.95
2010,04,02,13,02,985.95
2010,04,02,13,03,985.95
2010,04,02,13,04,985.95
2010,04,02,13,05,985.95
2010,04,02,13,06,985.95
2010,04,02,13,07,985.95
2010,04,02,13,08,985.95
2010,04,02,13,09,985.95
2010,04,02,13,10,985.95
2010,04,02,13,11,985.95
2010,04,02,13,12,985.95
2010,04,02,13,13,985.95
2010,04,02,13,14,985.95
2010,04,02,13,15,986.29
2010,04,02,13,16,986.29
2010,04,02,13,17,986.29
2010,04,02,13,18,986.29
2010,04,02,13,19,986.29
2010,04,02,13,20,986.29
2010,04,02,13,21,986.29
2010,04,02,13,22,986.29
2010,04,02,13,23,986.29
2010,04,02,13,24,986.29
2010,04,02,13,25,986.29
2010,04,02,13,26,986.29
2010,04,02,13,27,986.29
2010,04,02,13,28,986.29
2010,04,02,13,29,986.29
2010,04,02,13,30,986.49
2010,04,02,13,31,986.49
2010,04,02,13,32,986.49
2010,04,02,13,33,986.49
2010,04,02,13,34,986.49
2010,04,02,13,35,986.49
2010,04,02,13,36,986.49
2010,04,02,13,37,986.49
2010,04,02,13,38,986.49
2010,04,02,13,39,986.49
2010,04,02,13,40,986.49
2010,04,02,13,41,986.49
2010,04,02,13,42,986.49
2010,04,02,13,43,986.49
2010,04,02,13,44,986.49
2010,04,02,13,45,986.76
2010,04,02,13,46,986.76
2010,04,02,13,47,986.76
2010,04,02,13,48,986.76
2010,04,02,13,49,986.76
2010,04,02,13,50,986.76
2010,04,02,13,51,986.76
2010,04,02,13,52,986.76
2010,04,02,13,53,986.76
2010,04,02,13,54,986.76
2010,04,02,13,55,986.76
2010,04,02,13,56,986.76
2010,04,02,13,57,986.76
2010,04,02,13,58,986.76
2010,04,02,13,59,986.76
2010,04,02,14,00,986.73
2010,04,02,14,01,986.73
2010,04,02,14,02,986.73
2010,04,02,14,03,986.73
2010,04,02,14,04,986.73
2010,04,02,14,05,986.73
2010,04,02,14,06,986.73
2010,04,02,14,07,986.73
2010,04,02,14,08,986.73
2010,04,02,14,09,986.73
2010,04,02,14,10,986.73
2010,04,02,14,11,986.73
2010,04,02,14,12,986.73
2010,04,02,14,13,986.73
2010,04,02,14,14,986.73
2010,04,02,14,15,987.00
2010,04,02,14,16,987.00
2010,04,02,14,17,987.00
2010,04,02,14,18,987.00
2010,04,02,14,19,987.00
2010,04,02,14,20,987.00
2010,04,02,14,21,987.00
2010,04,02,14,22,987.00
2010,04,02,14,23,987.00
2010,04,02,14,24,987.00
2010,04,02,14,25,987.00
2010,04,02,14,26,987.00
2010,04,02,14,27,987.00
2010,04,02,14,28,987.00
2010,04,02,14,29,987.00
2010,04,02,14,30,987.20
2010,04,02,14,31,987.20
2010,04,02,14,32,987.20
2010,04,02,14,33,987.20
2010,04,02,14,34,987.20
2010,04,02,14,35,987.20
2010,04,02,14,36,987.20
2010,04,02,14,37,987.20
2010,04,02,14,38,987.20
2010,04,02,14,39,987.20
2010,04,02,14,40,987.20
2010,04,02,14,41,987.20
2010,04,02,14,42,987.20
2010,04,02,14,43,987.20
2010,04,02,14,44,987.20
2010,04,02,14,45,987.51
2010,04,02,14,46,987.51
2010,04,02,14,47,987.51
2010,04,02,14,48,987.51
2010,04,02,14,49,987.51
2010,04,02,14,50,987.51
2010,04,02,14,51,987.51
2010,04,02,14,52,987.51
2010,04,02,14,53,987.51
2010,04,02,14,54,987.51
2010,04,02,14,55,987.51
2010,04,02,14,56,987.51
2010,04,02,14,57,987.51
2010,04,02,14,58,987.51
2010,04,02,14,59,987.51
2010,04,02,15,00,987.74
2010,04,02,15,01,987.74
2010,04,02,15,02,987.74
2010,04,02,15,03,987.74
2010,04,02,15,04,987.74
2010,04,02,15,05,987.74
2010,04,02,15,06,987.74
2010,04,02,15,07,987.74
2010,04,02,15,08,987.74
2010,04,02,15,09,987.74
2010,04,02,15,10,987.74
2010,04,02,15,11,987.74
2010,04,02,15,12,987.74
2010,04,02,15,13,987.74
2010,04,02,15,14,987.74
2010,04,02,15,15,988.28
2010,04,02,15,16,988.28
2010,04,02,15,17,988.28
2010,04,02,15,18,988.28
2010,04,02,15,19,988.28
2010,04,02,15,20,988.28
2010,04,02,15,21,988.28
2010,04,02,15,22,988.28
2010,04,02,15,23,988.28
2010,04,02,15,24,988.28
2010,04,02,15,25,988.28
2010,04,02,15,26,988.28
2010,04,02,15,27,988.28
2010,04,02,15,28,988.28
2010,04,02,15,29,988.28
2010,04,02,15,30,988.69
2010,04,02,15,31,988.69
2010,04,02,15,32,988.69
2010,04,02,15,33,988.69
2010,04,02,15,34,988.69
2010,04,02,15,35,988.69
2010,04,02,15,36,988.69
2010,04,02,15,37,988.69
2010,04,02,15,38,988.69
2010,04,02,15,39,988.69
2010,04,02,15,40,988.69
2010,04,02,15,41,988.69
2010,04,02,15,42,988.69
2010,04,02,15,43,988.69
2010,04,02,15,44,988.69
2010,04,02,15,45,989.10
2010,04,02,15,46,989.10
2010,04,02,15,47,989.10
2010,04,02,15,48,989.10
2010,04,02,15,49,989.10
2010,04,02,15,50,989.10
2010,04,02,15,51,989.10
2010,04,02,15,52,989.10
2010,04,02,15,53,989.10
2010,04,02,15,54,989.10
2010,04,02,15,55,989.10
2010,04,02,15,56,989.10
2010,04,02,15,57,989.10
2010,04,02,15,58,989.10
2010,04,02,15,59,989.10
2010,04,02,16,00,989.16
2010,04,02,16,01,989.16
2010,04,02,16,02,989.16
2010,04,02,16,03,989.16
2010,04,02,16,04,989.16
2010,04,02,16,05,989.16
2010,04,02,16,06,989.16
2010,04,02,16,07,989.16
2010,04,02,16,08,989.16
2010,04,02,16,09,989.16
2010,04,02,16,10,989.16
2010,04,02,16,11,989.16
2010,04,02,16,12,989.16
2010,04,02,16,13,989.16
2010,04,02,16,14,989.16
2010,04,02,16,15,989.60
2010,04,02,16,16,989.60
2010,04,02,16,17,989.60
2010,04,02,16,18,989.60
2010,04,02,16,19,989.60
2010,04,02,16,20,989.60
2010,04,02,16,21,989.60
2010,04,02,16,22,989.60
2010,04,02,16,23,989.60
2010,04,02,16,24,989.60
2010,04,02,16,25,989.60
2010,04,02,16,26,989.60